Location: Unspecified
(0.0000°N, 0.0000°E)
Time: 04:54:48
(UTC+00:00)

Vanguard 1 - Pass Details

Date: 17 December 2023
Orbit: 653 x 3826 km, 34.3° (Epoch: 22 February)

Event Time Altitude Azimuth Distance (km) Brightness Sun altitude
Rises 21:00:52 0° 316° (NW) 6,779 14.5 -41.5°
Reaches altitude 10° 21:05:02 10° 320° (NW) 6,085 14.1 -42.4°
Enters shadow 21:19:44 50° 354° (N) 4,351 12.9 -45.4°
Maximum altitude 21:26:04 60° 37° (NE) 4,167 - -46.7°
Drops below altitude 10° 21:47:45 10° 112° (ESE) 6,306 - -51.0°
Exits shadow 21:50:27 - 115° (ESE) 6,753 14.1 -51.6°
Sets 21:52:05 0° 116° (ESE) 7,031 14.3 -51.9°
